Regional Weather Roundup
Issued by NWS

Home | Current Version | Previous Version | Graphics & Text | Print | Product List | Glossary On
Versions: 1 2 3 4 5 6 7 8 9 10 11 12 13 14 15 16 17 18 19 20 21 22 23 24 25 26 27 28 29 30 31 32 33 34 35 36 37 38 39 40 41 42 43 44 45 46 47 48 49 50
000
ASUS43 KIND 282309
RWRIN

WEATHER ROUNDUP FOR INDIANA
NATIONAL WEATHER SERVICE INDIANAPOLIS IN
700 PM EDT SAT MAY 28 2016

NOTE: "FAIR" INDICATES FEW OR NO CLOUDS BELOW 12,000 FEET WITH NO
SIGNIFICANT WEATHER AND/OR OBSTRUCTIONS TO VISIBILITY.

* - STATION DOES NOT REPORT WEATHER SUCH AS PRECIPITATION OR FOG.

+ - STATION NOT QUALITY CONTROLLED BY THE NATIONAL WEATHER SERVICE.
    USE DATA WITH CAUTION...ESPECIALLY DEWPOINT AND RELATIVE
    HUMIDITY OBSERVATIONS.

INZ001>003-010>013-019-020-290000-
NORTHWEST INDIANA

CITY           SKY/WX    TMP DP  RH WIND       PRES   REMARKS
GARY /AIRPORT/ MOSUNNY   82  70  65 S13G26    29.91F
KNOX *+          N/A     84  43  23 SW17G24     N/A
LA PORTE +     MOSUNNY   85  60  43 S15G22    29.95S
MICHIGAN CITY+ MOSUNNY   81  63  54 S15       29.93F
MONTICELLO +   CLOUDY    79  58  47 S14       29.97S
RENSSELAER +   SUNNY     82  59  44 S17G23    29.95S
VALPARAISO     SUNNY     83  61  47 S20G28    29.94S

$$

LMZ046-743>745-290000-
SOUTHERN LAKE MICHIGAN

STATION/POSITION TIME  TEMP    WIND        PRES    WAVE
                       AIR SEA DIR/SP/G            HT
                 (UTC) (F)     (DEG/KT/KT) (MB)    (FT)
BURNS HARBOR     2226   81     190/ 17/ 26 1013.2F
MICHIGAN CITY    2200   80     170/ 14/ 19   N/A
5NW MICH CITY    2300   71 57  210/ 10/ 12   N/A     2

$$

INZ004-005-014>016-021>024-290000-
NORTH CENTRAL INDIANA

CITY           SKY/WX    TMP DP  RH WIND       PRES   REMARKS
GOSHEN         LGT RAIN  78  61  55 S21G36    29.98R
LOGANSPORT +   CLOUDY    79  63  57 S16       30.00F
PERU/GRISSOM   PTSUNNY   74  65  72 S10       30.00S
ROCHESTER +    CLOUDY    81  64  57 S15       30.00R
SOUTH BEND     MOSUNNY   84  61  45 S13       29.95F
WARSAW +       LGT RAIN  73  64  73 S3        30.00R

$$

INZ006>009-017-018-025>027-290000-
NORTHEAST INDIANA

CITY           SKY/WX    TMP DP  RH WIND       PRES   REMARKS
ANGOLA *+        N/A     84  63  48 S12       29.99R
FORT WAYNE     LGT RAIN  81  62  52 S20G26    30.01R
HUNTINGTON +   CLOUDY    80  61  51 S12G21    30.01R

$$

INZ028-029-035-036-043>045-051>053-290000-
WEST CENTRAL INDIANA

CITY           SKY/WX    TMP DP  RH WIND       PRES   REMARKS
CRAWFORDSVL +  PTSUNNY   78  65  64 S18G25    30.00S
GREENCASTLE +  CLOUDY    75  70  83 S12G18    30.02S
LAFAYETTE      MOSUNNY   80  62  54 S13G20    29.96F
TERRE HAUTE    SUNNY     79  65  62 S18       29.99S

$$

INZ030>032-037>040-046>048-054>057-064-065-290000-
CENTRAL INDIANA

CITY           SKY/WX    TMP DP  RH WIND       PRES   REMARKS
CP ATTERBURY + CLOUDY    75  68  78 SE3       30.05S
COLUMBUS       MOSUNNY   73  72  94 S9        30.05S
FISHERS *+     PTSUNNY   77  66  69 S14       30.04R
FRANKFORT +      N/A     80  55  41 S8G16     30.02F
GREENWOOD *+   CLOUDY    77  63  61 S12       30.05R
INDIANAPOLIS   CLOUDY    77  63  61 S14       30.02R
-EAGLE CREEK   CLOUDY    78  64  61 S13G18    30.03R
KOKOMO *+      CLOUDY    75  61  60 SW9       30.01S
MARION +       CLOUDY    80  63  56 S13       30.03R
SHELBYVILLE    LGT RAIN  76  66  71 S13       30.05R
ZIONSVILLE +   LGT RAIN  75  66  74 S12       30.04R

$$

INZ033-034-041-042-049-050-058-059-290000-
EAST CENTRAL INDIANA

CITY           SKY/WX    TMP DP  RH WIND       PRES   REMARKS
MUNCIE         CLOUDY    74  64  71 S8        30.05S

$$

INZ060-061-067>069-081>083-085>088-290000-
SOUTHWEST INDIANA

CITY           SKY/WX    TMP DP  RH WIND       PRES   REMARKS
EVANSVILLE     CLOUDY    82  65  56 S10G21    30.02S
HUNTINGBURG *+ MOSUNNY   81  66  61 S14       30.03F
WASHINGTON +   MOSUNNY   78  68  71 S13       30.01F

$$

INZ062-063-066-070>080-084-089>092-290000-
SOUTH CENTRAL AND SOUTHEAST INDIANA

CITY           SKY/WX    TMP DP  RH WIND       PRES   REMARKS
BEDFORD +      MOSUNNY   79  72  78 S10       30.03F
BLOOMINGTON    CLOUDY    73  68  84 S5        30.04S
MADISON *+     MOSUNNY   77  68  73 S6        30.09R
NORTH VERNON + LGT RAIN  73  72  94 CALM      30.07S
SEYMOUR +      PTSUNNY   77  66  69 S8        30.05S

$$





USA.gov is the U.S. government's official web portal to all federal, state and local government web resources and services.